Showing default

COSMOS 2544 (GLONASS), 44850

Orbit data source: Space-Track

COSMOS 2544 (GLONASS), 44850 is a Commonwealth of Independent States-origin payload satellite in MEO that was launched on Wed, 11 Dec 2019 UTC via a SOYUZ-2-1B launch vehicle from the Plesetsk Missile And Space Complex (PKMTR). Payload-class satellites include a variety of spacecraft equipped with specific instruments for various scientific and technological missions. These include communications satellites like Starlink; space stations such as the ISS; scientific satellites like the Hubble; Earth observation satellites from companies like Planet Labs, Umbra, and HawkEye 360; GPS; miniature CubeSats for education and research; and military/defense satellites.

Loading next visibility...
Identifier
44850, 2019-088A
Orbit
MEO
Country
Flag of CISCIS
Related business
Manufacturer
Resehetnev ISS
Mission
Operational Defense Navigation
Bus & Motor
URAGAN, Unknown motor
Mass
1,450 kg wet, ~1,200 kg dry
Launch date (UTC)
2019-12-11 (6 years ago)
Launch vehicle
SOYUZ-2-1B
Launch site
Plesetsk Missile And Space Complex (PKMTR)
Object type
Payload
Rocket body
Debris
Shape & HBR
Cyl + 1 Ant + 2 Pan, Unknown HBR
Radar Cross Section
8.467 m², Large (>1 m²)

Expand to show TLE details & history
Last TLE update: 1 day ago

TLE from 1 day ago
0 COSMOS 2544 (GLONASS)
1 44850U 19088A   25258.04219513  .00000037  00000-0  00000-0 0  9994
2 44850  65.4109  82.9235 0011585 247.1420 112.7878  2.13101907 44856
Epoch: 2025-09-15T01:00Z
TLE epoch observation values (Epoch: 2025-09-15T01:00:45.659Z)
Latitude
-0°
Longitude
73.47679°
Altitude
19,141.903 km
Speed
3.951 km/s
True Right ascension
05h 31m 40s
True Declination
0° 00' 00"
Sunlit
Object was in daylight at epoch
Visualization orbit readout
Latitude
Unknown
Longitude
Unknown
Altitude
Unknown
Speed
Unknown
Apparent Right ascension
Unknown
Apparent Declination
Unknown
Sunlit
N/A
Visualization observer readout
Local Sidereal Time
03:49:36
Azimuth
Unknown
Elevation
Unknown
Doppler factor
Unknown
Orbital elements
Apogee altitude
19,159.046 km
Perigee altitude
19,099.945 km
Semi-major axis
25,507.633 km
Eccentricity
0.00116
Inclination
65.4109°
RAAN
82.9235°
Arg. of periapsis
247.142°
True anomaly
112.91012°
Mean anomaly
112.7878°
Eccentric anomaly
112.84897°
Mean motion
0.53277 °/min
Orbital period
675.72 mins
BSTAR
0
Loading maneuver chart data...
Computing Atmospheric mass density...
Loading historical data...
Loading historical data...
Loading historical data...
Loading historical data...
Loading historical data...
Loading historical data...
Loading historical data...
Other satellites on launch #88 in the year 2019 (2019-12-11 UTC)

Documentation

Showing up to 5 results
|